User: anonymous   Login
Location: Unspecified
(0.0000°N, 0.0000°E)
Time: 12:59:48
(UTC+00:00)
Language:

USA 8 - Orbit

View from above orbital plane
View from above orbital plane
View from above satellite
View from above satellite

Ground track
Ground track

The orbit data is extracted from the following two-line orbital elements,

1 15543U 85010B   20143.51063866 0.00000000  00000-0  00000-0 0    00
2 15543  16.4598 336.3771 0133895 354.7549   5.0391  0.99808024    07
Epoch (UTC): 22 May 2020 12:15:19
Eccentricity: 0.0133895
inclination: 16.4598°
perigee height: 35350 km
apogee height: 36483 km
right ascension of ascending node: 336.3771°
argument of perigee: 354.7549°
revolutions per day: 0.99808024
mean anomaly at epoch: 5.0391°
orbit number at epoch: 0

The dashed part of the orbit path shows where the satellite is in the earth's shadow,  

DLR